Location: Arrodets-la-Barthe
(43.0306°N, 0.2829°E)
Time: 12:27:15
(UTC+00:00)

Feng Yun 1-1 Rocket - Pass Details

Date: 29 May 2022
Orbit: 830 x 933 km, 99.2° (Epoch: 02 July)

Event Time Altitude Azimuth Distance (km) Brightness Sun altitude
Rises 20:04:07 0° 199° (SSW) 3,412 7.2 -6.1°
Reaches altitude 10° 20:06:58 10° 214° (SSW) 2,466 6.6 -6.5°
Maximum altitude 20:11:15 23° 266° (W) 1,696 6.4 -7.2°
Drops below altitude 10° 20:15:32 10° 318° (NW) 2,449 8.3 -7.8°
Sets 20:18:22 0° 333° (NNW) 3,383 8.8 -8.2°
